Maun, Botswana

7:49 PM CAT on February 26, 2017 (GMT +0200)
Maun

Weather History for FBMN - October, 2011

Change the Weather History Date:

Monday, October 24, 2011

  Actual Average Record
Temperature  
Mean Temperature 88 °F -  
Max Temperature 106 °F 91 °F 105 °F (2011)
Min Temperature 70 °F 69 °F 62 °F (2003)
Cooling Degree Days 23    
Growing Degree Days 38 (Base 50)    
Moisture  
Dew Point 61 °F    
Average Humidity 42    
Maximum Humidity 69    
Minimum Humidity 12    
Precipitation  
Precipitation 0.00 in - - ()
Sea Level Pressure  
Sea Level Pressure 29.86 in    
Wind  
Wind Speed 5 mph ()    
Max Wind Speed 16 mph    
Max Gust Speed -    
Visibility 6.1 miles    
Events      
Averages and records for this station are not official NWS values.
T = Trace of Precipitation, MM = Missing Value Source: Averaged Metar Reports

Daily Weather History Graph

Daily Weather History Graph

Search for Another Location

Airport or City:

Trip Planner

Search our weather history database for the weather conditions in past years. The results will help you decide how hot, cold, wet, or windy it might be!

Date:

Astronomy

Oct. 24, 2011 Rise Set
Actual Time 5:49 AM CAT 6:31 PM CAT
Civil Twilight 5:27 AM CAT 6:54 PM CAT
Nautical Twilight 5:00 AM CAT 7:20 PM CAT
Astronomical Twilight 4:33 AM CAT 7:47 PM CAT
Moon 3:36 AM CAT (10/24) 4:08 PM CAT (10/24)
Length of Visible Light 13h 27m
Length of Day
12h 41m
Waning Crescent, 9% of the Moon is Illuminated
Oct 24
Waning Crescent
Oct 26
New
Nov 2
First Quarter
Nov 10
Full
Nov 18
Last Quarter

Hourly Weather History & Observations

Time (CAT) Temp. Heat Index Dew Point Humidity Pressure Visibility Wind Dir Wind Speed Gust Speed Precip Events Conditions
12:00 AM 80.6 °F 81.1 °F 59.0 °F 48% 29.89 in - SE 5.8 mph - N/A   Clear
1:00 AM 78.8 °F - 59.0 °F 51% 29.89 in - NNE 5.8 mph - N/A   Clear
2:00 AM 78 °F - 64 °F 52%  in 6 mi ENE 2.3 mph - -  
2:00 AM 78.8 °F - 64.4 °F 61% 29.89 in - Variable 2.3 mph - N/A   Clear
3:00 AM 75.2 °F - 62.6 °F 65% 29.86 in - Calm Calm - N/A   Clear
4:00 AM 75.2 °F - 62.6 °F 65% 29.86 in - WSW 3.5 mph - N/A   Clear
5:00 AM 73.4 °F - 62.6 °F 69% 29.89 in - SE 3.5 mph - N/A   Clear
6:00 AM 71.6 °F - 60.8 °F 69% 29.89 in - Variable 2.3 mph - N/A   Clear
7:00 AM 75.2 °F - 62.6 °F 65% 29.92 in - Variable 1.2 mph - N/A   Clear
8:00 AM 82 °F - 64 °F 44%  in 6 mi West 4.6 mph - -  
8:00 AM 82.4 °F 83.9 °F 64.4 °F 54% 29.92 in - West 4.6 mph - N/A   Clear
9:00 AM 91.4 °F 93.2 °F 64.4 °F 41% 29.95 in - South 3.5 mph - N/A   Clear
10:00 AM 96.8 °F 99.0 °F 64.4 °F 34% 29.95 in - SSE 8.1 mph - N/A   Clear
11:00 AM 100.4 °F 101.3 °F 60.8 °F 27% 29.92 in - NNE 10.4 mph - N/A   Clear
12:00 PM 102.2 °F 102.4 °F 59.0 °F 24% 29.89 in - North 12.7 mph - N/A   Clear
2:00 PM 106 °F - 56 °F 12%  in 6 mi North 13.8 mph - -   Haze
2:00 PM 105.8 °F 105.5 °F 57.2 °F 20% 29.80 in 6.2 mi North 13.8 mph - N/A   Scattered Clouds
3:00 PM 105.8 °F 105.5 °F 57.2 °F 20% 29.80 in 6.2 mi North 10.4 mph - N/A   Scattered Clouds
4:00 PM 105.8 °F 104.9 °F 55.4 °F 19% 29.77 in 6.2 mi NNW 8.1 mph - N/A   Mostly Cloudy
5:00 PM 100.4 °F 100.2 °F 59.0 °F 25% 29.77 in 6.2 mi SSW 16.1 mph - N/A   Scattered Clouds
6:00 PM 98.6 °F 101.0 °F 64.4 °F 32% 29.77 in 6.2 mi West 4.6 mph - N/A   Scattered Clouds
7:00 PM 95.0 °F 96.0 °F 62.6 °F 34% 29.80 in - WSW 3.5 mph - N/A   Clear
8:00 PM 90 °F - 63 °F 31%  in 6 mi South 2.3 mph - -   Scattered Clouds
8:00 PM 91.4 °F 92.1 °F 62.6 °F 38% 29.80 in - Variable 2.3 mph - N/A   Clear
9:00 PM 87.8 °F 88.5 °F 62.6 °F 43% 29.80 in - South 5.8 mph - N/A   Clear
10:00 PM 86.0 °F 85.4 °F 59.0 °F 40% 29.83 in - ESE 3.5 mph - N/A   Clear
11:00 PM 84.2 °F 84.4 °F 60.8 °F 45% 29.83 in - Variable 2.3 mph - N/A   Clear